CAPE
0 207 711 57 6 2661 2235 1510 1703 2313 1800 1752 1632 1071 887 788 488 113 12 3 2 0 0 7 83 53 37 36 50 84 81 36
8 272 1023 1924 2377 2200 1557 1304 1871 2095 2100 1830 1661 1188 663 404 61 3 0 0 0 0 0 0 0 3 26 24 137 54 116 3
13 67 121 503 734 1044 1082 1319 1686 2180 2117 2204 1188 861 423 233 69 1 2 0 1 2 1 0 5 0 2 19 88 28 115 7
34 13 111 366 640 759 893 1107 1593 1992 1844 1337 915 500 325 247 132 2 3 0 0 0 2 2 3 4 8 2 0 0 8 85
73 90 89 203 328 500 817 962 1656 1631 1561 735 629 476 334 209 47 4 0 0 0 0 1 0 3 0 0 0 0 0 0 10
161 194 150 45 62 289 548 758 1047 1145 674 626 624 580 162 29 12 0 0 0 0 0 0 0 0 0 0 0 0 0 0 0
214 289 345 135 140 311 504 556 417 525 662 851 699 610 323 200 77 13 6 2 0 0 0 0 0 0 0 0 0 0 0 0
115 300 449 438 282 342 377 556 640 665 636 629 563 337 81 26 1 3 4 4 6 4 0 0 0 0 0 0 1 2 2 0
0 44 145 372 513 604 542 423 361 491 514 399 238 216 100 2 32 8 9 8 18 11 1 0 0 0 0 0 0 1 1 3
0 0 6 75 155 246 235 67 7 37 135 259 268 230 93 3 22 76 23 19 4 14 2 0 0 0 0 0 0 2 1 1
0 0 0 0 4 36 113 37 0 0 57 122 86 100 73 98 158 178 116 160 98 0 42 20 5 4 0 0 1 4 0 4
0 0 0 0 0 0 149 235 78 81 154 142 101 89 83 108 127 161 181 177 146 77 54 35 18 20 12 5 3 6 5 5
0 0 0 0 0 0 0 0 39 110 199 149 141 171 100 112 107 86 99 85 62 29 22 41 45 26 40 24 8 4 3 4
0 0 0 0 0 0 0 0 0 11 142 150 150 129 88 81 45 25 27 21 18 21 19 23 17 22 4 16 10 8 0 0
0 0 0 0 0 0 0 0 0 0 2 40 144 95 9 0 0 0 0 0 0 2 11 17 7 5 5 6 8 6 0 0
0 0 0 0 0 0 0 0 0 0 0 18 23 5 0 0 0 0 0 0 2 10 4 4 3 9 12 15 10 0 0 0
0 0 0 0 0 0 0 0 0 0 0 0 0 0 0 0 0 0 0 12 40 9 2 2 6 0 0 0 0 0 0 0
0 0 0 0 0 0 0 0 0 0 0 0 0 0 0 0 0 2 21 31 8 12 0 0 0 0 0 0 0 0 0 0
0 0 0 0 1 8 0 0 0 0 0 0 0 0 0 1 13 14 4 0 0 0 0 0 0 0 0 0 0 0 0 0
CIN
0 -189 -81 -150 -71 -4 -52 -60 -26 -1 -18 -10 -2 -16 -17 -27 -45 -120 -105 -106 -80 -1 0 -48 -6 -18 -44 -57 -52 -48 -35 -93
-126 -254 -117 -44 -36 -36 -72 -90 -32 -3 -1 -2 -3 -8 -42 -83 -154 -54 0 0 -1 0 0 0 0 -121 -103 -55 -1 -43 -2 -98
-353 -367 -359 -246 -201 -140 -131 -91 -47 -1 0 0 -2 -16 -70 -28 -34 -55 -36 0 -1 -159 -2 0 -2 0 -33 -73 -15 -30 -11 -4
-287 -412 -353 -265 -199 -172 -142 -105 -38 -1 0 -3 -37 -48 -23 -7 -11 -42 -173 0 0 0 -1 0 -3 0 -2 -1 0 -2 -4 0
-220 -288 -316 -291 -260 -208 -137 -107 -17 -2 0 -38 -14 -23 -12 -29 -156 -26 0 0 0 0 0 0 -1 0 0 0 0 0 0 -24
-148 -206 -254 -338 -344 -251 -167 -101 -38 -12 -32 -31 -14 -6 -136 -236 -260 0 0 0 0 0 0 0 0 0 0 0 0 0 0 0
-132 -150 -155 -258 -259 -203 -152 -114 -152 -69 -20 0 -1 -2 -22 -33 -86 0 0 0 0 0 0 0 0 0 0 0 0 0 0 0
-118 -75 -63 -99 -166 -160 -150 -70 -25 -12 -9 -8 -5 -9 -46 -55 0 0 0 0 0 0 0 0 0 0 0 0 0 0 0 0
-8 -132 -97 -59 -43 -25 -24 -21 -34 -10 -5 -7 -24 -27 -38 0 -49 0 -28 0 0 -1 0 0 0 0 0 0 0 0 0 0
0 0 -159 -112 -76 -50 -53 -136 -211 -133 -60 -22 -16 -27 -42 -25 -43 -20 -51 -72 -33 -133 -101 0 0 0 0 0 0 0 0 0
0 0 0 -26 -123 -157 -80 -120 0 0 -72 -41 -54 -32 -30 -16 -7 -12 -23 -20 -53 0 -76 -71 -1 0 0 0 0 0 0 0
0 0 0 0 0 -49 -54 -37 -50 -46 -27 -22 -38 -32 -33 -37 -32 -28 -30 -32 -47 -94 -45 -25 -22 -13 0 0 0 0 0 0
0 0 0 0 0 0 0 -5 -58 -10 0 -21 -41 -27 -46 -44 -48 -70 -68 -93 -106 -49 -40 -34 -25 -32 -27 -46 0 0 0 0
0 0 0 0 0 0 0 0 0 -33 -25 -19 -23 -36 -45 -49 -84 -65 -83 -79 -77 -72 -74 -53 -50 -56 -13 -71 -10 0 0 0
0 0 0 0 0 0 0 0 0 0 -35 -52 -10 -31 -66 0 0 0 0 0 0 -88 -79 -71 -85 -37 0 0 0 0 0 0
0 0 0 0 0 0 0 0 0 0 0 -58 -36 -23 0 0 0 0 0 0 -3 -5 -94 -55 -16 0 0 0 0 0 0 0
0 0 0 0 0 0 0 0 0 0 0 0 0 0 0 0 0 0 0 -2 -1 -8 -19 0 0 0 0 0 0 0 0 0
0 0 0 0 0 0 0 0 0 0 0 0 0 0 0 0 0 -1 -2 -4 -15 -5 0 0 0 0 0 0 0 0 0 0
0 0 0 0 -4 -3 0 0 0 0 0 0 0 0 0 -1 -1 -2 -2 0 0 0 0 0 0 0 0 0 0 0 0 0
Wind_Speed
nan 36 33 nan nan 49 43 36 34 37 33 29 25 27 28 33 33 36 nan nan nan nan nan nan nan nan nan nan nan nan nan nan
nan 39 34 40 40 37 33 32 32 32 32 32 32 35 33 35 nan nan nan nan nan nan nan nan nan nan nan nan 55 nan 40 nan
nan nan 35 33 34 30 30 30 31 31 33 32 34 36 37 38 nan nan nan nan nan nan nan nan nan nan nan nan nan nan 26 nan
nan nan 32 32 31 29 29 31 32 29 32 33 37 40 42 43 43 nan nan nan nan nan nan nan nan nan nan nan nan nan nan nan
nan nan nan 34 32 31 32 33 34 28 34 40 43 42 45 46 nan nan nan nan nan nan nan nan nan nan nan nan nan nan nan nan
36 38 40 nan nan 33 35 37 36 38 40 46 46 45 47 nan nan nan nan nan nan nan nan nan nan nan nan nan nan nan nan nan
39 40 41 38 36 38 39 41 42 47 50 48 50 52 53 52 nan nan nan nan nan nan nan nan nan nan nan nan nan nan nan nan
40 41 41 41 39 40 40 46 48 50 50 49 47 48 nan nan nan nan nan nan nan nan nan nan nan nan nan nan nan nan nan nan
nan nan 43 46 46 45 47 50 52 47 44 42 40 37 40 nan nan nan nan nan nan nan nan nan nan nan nan nan nan nan nan nan
nan nan nan nan 50 52 54 nan nan nan 44 34 37 41 nan nan nan nan nan nan nan nan nan nan nan nan nan nan nan nan nan nan
nan nan nan nan nan nan 52 nan nan nan nan 38 nan 42 nan nan 38 37 43 47 nan nan nan nan nan nan nan nan nan nan nan nan
nan nan nan nan nan nan 53 49 nan nan 45 38 40 nan nan 34 36 41 46 45 46 nan nan nan nan nan nan nan nan nan nan nan
nan nan nan nan nan nan nan nan nan 50 43 43 42 38 35 38 39 nan nan nan nan nan nan nan nan nan nan nan nan nan nan nan
nan nan nan nan nan nan nan nan nan nan 50 47 44 38 nan nan nan nan nan nan nan nan nan nan nan nan nan nan nan nan nan nan
nan nan nan nan nan nan nan nan nan nan nan nan 49 nan nan nan nan nan nan nan nan nan nan nan nan nan nan nan nan nan nan nan
nan nan nan nan nan nan nan nan nan nan nan nan nan nan nan nan nan nan nan nan nan nan nan nan nan nan nan nan nan nan nan nan
nan nan nan nan nan nan nan nan nan nan nan nan nan nan nan nan nan nan nan nan nan nan nan nan nan nan nan nan nan nan nan nan
nan nan nan nan nan nan nan nan nan nan nan nan nan nan nan nan nan nan nan nan nan nan nan nan nan nan nan nan nan nan nan nan
nan nan nan nan nan nan nan nan nan nan nan nan nan nan nan nan nan nan nan nan nan nan nan nan nan nan nan nan nan nan nan nan
Wind_Direction
nan 269 275 nan nan 295 296 297 295 286 289 296 302 313 316 319 318 315 nan nan nan nan nan nan nan nan nan nan nan nan nan nan
nan 275 272 278 279 291 293 285 287 290 294 304 308 308 311 316 nan nan nan nan nan nan nan nan nan nan nan nan 293 nan 289 nan
nan nan 283 277 279 282 287 285 287 291 298 301 303 307 311 307 nan nan nan nan nan nan nan nan nan nan nan nan nan nan 299 nan
nan nan 282 283 280 282 282 279 283 290 298 300 304 308 310 310 310 nan nan nan nan nan nan nan nan nan nan nan nan nan nan nan
nan nan nan 278 272 271 275 279 283 295 314 312 316 312 310 304 nan nan nan nan nan nan nan nan nan nan nan nan nan nan nan nan
287 285 283 nan nan 285 284 286 293 308 316 316 315 308 308 nan nan nan nan nan nan nan nan nan nan nan nan nan nan nan nan nan
284 285 282 277 278 281 286 297 305 310 313 315 311 312 304 298 nan nan nan nan nan nan nan nan nan nan nan nan nan nan nan nan
289 285 277 277 276 281 295 312 313 312 311 312 310 301 nan nan nan nan nan nan nan nan nan nan nan nan nan nan nan nan nan nan
nan nan 276 278 280 288 302 308 309 313 315 306 300 300 300 nan nan nan nan nan nan nan nan nan nan nan nan nan nan nan nan nan
nan nan nan nan 285 291 298 nan nan nan 311 300 305 304 nan nan nan nan nan nan nan nan nan nan nan nan nan nan nan nan nan nan
nan nan nan nan nan nan 301 nan nan nan nan 305 nan 308 nan nan 310 301 298 306 nan nan nan nan nan nan nan nan nan nan nan nan
nan nan nan nan nan nan 305 307 nan nan 301 301 308 nan nan 306 299 296 301 309 314 nan nan nan nan nan nan nan nan nan nan nan
nan nan nan nan nan nan nan nan nan 310 296 297 302 304 304 302 300 nan nan nan nan nan nan nan nan nan nan nan nan nan nan nan
nan nan nan nan nan nan nan nan nan nan 295 292 300 298 nan nan nan nan nan nan nan nan nan nan nan nan nan nan nan nan nan nan
nan nan nan nan nan nan nan nan nan nan nan nan 298 nan nan nan nan nan nan nan nan nan nan nan nan nan nan nan nan nan nan nan
nan nan nan nan nan nan nan nan nan nan nan nan nan nan nan nan nan nan nan nan nan nan nan nan nan nan nan nan nan nan nan nan
nan nan nan nan nan nan nan nan nan nan nan nan nan nan nan nan nan nan nan nan nan nan nan nan nan nan nan nan nan nan nan nan
nan nan nan nan nan nan nan nan nan nan nan nan nan nan nan nan nan nan nan nan nan nan nan nan nan nan nan nan nan nan nan nan
nan nan nan nan nan nan nan nan nan nan nan nan nan nan nan nan nan nan nan nan nan nan nan nan nan nan nan nan nan nan nan nan